Regional Weather Roundup
Issued by NWS

Home | Current Version | Previous Version | Text Only | Print | Product List | Glossary Off
Versions: 1 2 3 4 5 6 7 8 9 10 11 12 13 14 15 16 17 18 19 20 21 22 23 24 25 26 27 28 29 30 31 32 33 34 35 36 37 38 39 40 41 42 43 44 45 46

000
ASUS45 KBOU 190307
RWRCO

WEATHER ROUNDUP FOR COLORADO
NATIONAL WEATHER SERVICE DENVER/BOULDER CO
900 PM MDT THU SEP 18 2014

NOTE: "FAIR" INDICATES FEW OR NO CLOUDS BELOW 12000 FEET WITH NO
SIGNIFICANT WEATHER AND/OR OBSTRUCTIONS TO VISIBILITY.

COZ001>005-013-030-031-190400-
...NORTHWEST COLORADO...

CITY           SKY/WX    TMP DP  RH WIND       PRES   REMARKS
CRAIG          CLEAR     56  43  61 E3        30.00R
HAYDEN         CLEAR     64  36  34 S3        30.03R
MEEKER         CLEAR     58  41  53 CALM      30.03R
MOUNT WERNER   NOT AVBL
STEAMBOAT SPGS CLEAR     62  41  44 CALM      30.05R
WALDEN         CLEAR     52  34  50 SE8       30.16R
$$

COZ006>008-011-190400-
...WEST CENTRAL VALLEYS...

CITY           SKY/WX    TMP DP  RH WIND       PRES   REMARKS
GRAND JUNCTION CLEAR     69  43  38 CALM      29.89R
MONTROSE       PTCLDY    70  43  37 SE9       30.00R
EAGLE          PTCLDY    66  41  39 SE5       30.05R
RIFLE          CLEAR     68  40  35 CALM      29.96R
DELTA          PTCLDY    75  40  28 E7        29.93R
NUCLA          PTCLDY    73  36  25 W3        30.04R
$$

COZ017>023-064>068-190400-
...SOUTHWEST COLORADO...

CITY           SKY/WX    TMP DP  RH WIND       PRES   REMARKS
DURANGO        CLEAR     69  36  29 W8        30.07R
CORTEZ         CLEAR     60  46  59 NE7       30.03R
PAGOSA SPRINGS MOCLDY    62  32  32 CALM      30.15R
TELLURIDE      NOT AVBL
WOLF CREEK PAS CLOUDY    52  28  40 S6        30.48R
$$

COZ009-010-012-014-032>034-037-058>063-190400-
...CENTRAL COLORADO...

CITY           SKY/WX    TMP DP  RH WIND       PRES   REMARKS
ASPEN          PTCLDY    59  39  47 S8        30.14R
BUENA VISTA    PTCLDY    55  29  37 CALM      30.19R
COPPER MTN     NOT AVBL
BERTHOUD PASS  CLOUDY    46  45  93 SE17      30.54R
COTTONWOOD PAS PTCLDY    63  21  20 SE12G18   30.33R
GUNNISON       CLEAR     59  34  38 N7        30.16R
KREMMLING      PTCLDY    59  34  38 CALM      30.11R
LEADVILLE      MOCLDY    59  27  29 CALM      30.32R
MONARCH PASS   CLEAR     50  27  40 E6        30.59R
SALIDA         PTCLDY    70  27  19 SE9       30.22R
SUNLIGHT       CLEAR     57  34  41 CALM      30.39R
WILKERSON PASS NOT AVBL
$$

COZ069>075-190400-
...SAN LUIS VALLEY/SANGRE DE CRISTO MOUNTAINS...

CITY           SKY/WX    TMP DP  RH WIND       PRES   REMARKS
ALAMOSA        CLEAR     61  33  35 S10       30.16R
LA VETA PASS   CLEAR     54  37  54 E6        30.37S
SAGUACHE       NOT AVBL
$$

COZ035-036-038>040-190400-
...NORTHERN COLORADO FRONT RANGE...

CITY           SKY/WX    TMP DP  RH WIND       PRES   REMARKS
DENVER INTL AP PTCLDY    71  34  25 S15       29.96R
DMNS CITY PARK NOT AVBL
AURORA         CLEAR     73  33  23 S15       29.99R
FRONT RANGE AP CLEAR     72  36  26 S12       29.98R
ERIE MUNI ARPT NOT AVBL
BOULDER MUN AP CLEAR     72  37  28 CALM      29.94R
CENTENNIAL     CLEAR     72  33  24 S17       30.00R
BROOMFIELD     CLEAR     75  36  23 S6        29.97
FORT COLLINS   CLEAR     73  39  29 SE8       29.93R
LONGMONT       CLEAR     65  46  50 W5        29.95R
$$

COZ041-046-047-076>085-087-088-190400-
...PIKES PEAK/PALMER DIVIDE AND SOUTHERN FOOTHILLS...

CITY           SKY/WX    TMP DP  RH WIND       PRES   REMARKS
COLO. SPRINGS  CLEAR     68  37  32 SE10      30.10R
A. F. ACADEMY  CLEAR     67  33  28 SE13      30.11R
ELLICOTT       NOT AVBL
FALCON         CLEAR     64  37  38 S12       30.15R
FORT CARSON    CLEAR     68  35  29 SW6       30.07R
LIMON          CLEAR     69  45  41 S9        30.03R
MONUMENT HILL  CLEAR     64  34  32 S23G29    30.11R
TRINIDAD       CLEAR     65  52  62 S9        30.08R
$$

COZ042>045-048>051-090-091-190400-
...NORTHEAST COLORADO...

CITY           SKY/WX    TMP DP  RH WIND       PRES   REMARKS
GREELEY ARPT   CLEAR     70  45  40 E6        29.92R
AKRON          CLEAR     65  56  72 SE9       29.95R
BURLINGTON     CLEAR     72  50  45 S13       29.97R
WRAY           CLEAR     66  63  89 E7        29.92R
STERLING       CLEAR     73  64  73 SE14G20   29.88R
HOLYOKE        CLEAR     64  61  88 SE7       29.92S
FORT MORGAN    CLEAR     67  53  60 E8        29.92R
$$

COZ086-089-092>099-190400-
...SOUTHEAST COLORADO...

CITY           SKY/WX    TMP DP  RH WIND       PRES   REMARKS
PUEBLO         CLEAR     74  45  35 SE9       29.98R
LA JUNTA       CLEAR     74  53  48 S9        29.98R
LAMAR          CLEAR     72  55  55 S13       29.95R
SPRINGFIELD      N/A     63  57  81 S9        30.04R
$$



USA.gov is the U.S. government's official web portal to all federal, state and local government web resources and services.